{"data":{"norad_id":53392,"epoch":"2026-09-20T03:33:03.033792Z","epoch_age_seconds":105703,"freshness":"FRESH","line1":"1 53392U 22097E   26263.14795178 -.00002278  00000+0 -61682-4 0  9990","line2":"2 53392  53.1608 320.9982 0001222 100.6902 259.4237 15.31686426228168","mean_motion":15.31686426,"eccentricity":0.0001222,"inclination_deg":53.1608,"raan_deg":320.9982,"arg_perigee_deg":100.6902,"mean_anomaly_deg":259.4237,"bstar":-6.1682e-5,"rev_number":22816,"period_min":94.014021117923,"perigee_km":469.94352119866,"apogee_km":471.61739662562,"semimajor_km":6848.9174589121,"source":"CELESTRAK","updated_at":"2026-09-20T09:00:40.223534Z"}}